Location: Bishop�s Knoyle
(51.0728°N, 2.1714°W)
Time: 01:02:24
(UTC+00:00)

Nauka - Pass Details

Date: 25 September 2021
Orbit: 417 x 423 km, 51.6° (Epoch: 24 October)

Event Time Altitude Azimuth Distance (km) Brightness Sun altitude
Rises 19:41:44 0° 274° (W) 2,365 ? -16.6°
Reaches altitude 10° 19:43:49 10° 276° (W) 1,502 ? -16.9°
Maximum altitude 19:47:12 80° 3° (N) 432 ? -17.4°
Enters shadow 19:47:58 50° 81° (E) 541 ? -17.5°
